Weather History for Georgetown, SC

Change the Weather History Date:

Monday, March 5, 2012

  Actual Average Record
Temperature  
Mean Temperature 50 °F -  
Max Temperature 66 °F 68 °F 68 °F (2011)
Min Temperature 33 °F 45 °F 33 °F (2012)
Degree Days  
Heating Degree Days 16    
Moisture  
Dew Point 24 °F    
Average Humidity 40    
Maximum Humidity 81    
Minimum Humidity 14    
Precipitation  
Precipitation 0.00 in - - ()
Sea Level Pressure  
Sea Level Pressure 30.18 in    
Wind  
Wind Speed 11 mph (West)    
Max Wind Speed 32 mph    
Max Gust Speed 45 mph    
Visibility 10 miles    
Events      
Averages and records for this station are not official NWS values.
T = Trace of Precipitation, MM = Missing Value Source: NWS Daily Summary

Daily Weather History Graph

Daily Weather History Graph

Search for Another Location

Airport:

Trip Planner

Search our weather history database for the weather conditions in past years. The results will help you decide how hot, cold, wet, or windy it might be!

Date:

Astronomy

Mar. 05, 2012 Rise Set
Actual Time 6:39 AM EST 6:17 PM EST
Civil Twilight 6:15 AM EST 6:42 PM EST
Nautical Twilight 5:46 AM EST 7:11 PM EST
Astronomical Twilight 5:17 AM EST 7:40 PM EST
Moon 3:40 PM EST (3/5) 4:30 AM EST (3/5)
Length of Visible Light 12h 27m
Length of Day
11h 37m
Waxing Gibbous, 91% of the Moon is Illuminated
Mar 5
Waxing Gibbous
Mar 8
Full
Mar 14
Last Quarter
Mar 22
New
Mar 30
First Quarter

Hourly Weather History & Observations

Time (EST) Temp. Windchill Dew Point Humidity Pressure Visibility Wind Dir Wind Speed Gust Speed Precip Events Conditions
12:15 AM 35.6 °F 29.9 °F 28.4 °F 75% - 10.0 mi SW 6.9 mph - N/A   Clear
12:35 AM 35.6 °F 29.9 °F 28.4 °F 75% - 10.0 mi SW 6.9 mph - N/A   Clear
12:55 AM 35.6 °F 30.7 °F 28.4 °F 75% - 10.0 mi SW 5.8 mph - N/A   Clear
1:15 AM 35.6 °F 31.7 °F 28.4 °F 75% - 10.0 mi SW 4.6 mph - N/A   Clear
1:35 AM 35.6 °F 30.7 °F 28.4 °F 75% - 10.0 mi SW 5.8 mph - N/A   Clear
1:55 AM 35.6 °F 30.7 °F 28.4 °F 75% - 10.0 mi SW 5.8 mph - N/A   Clear
2:15 AM 33.8 °F 28.6 °F 28.4 °F 81% - 10.0 mi SW 5.8 mph - N/A   Clear
2:35 AM 37.4 °F 32.1 °F 28.4 °F 70% 30.14 in 10.0 mi SW 6.9 mph - N/A   Clear
2:55 AM 37.4 °F 32.8 °F 28.4 °F 70% 30.15 in 10.0 mi SW 5.8 mph - N/A   Clear
3:15 AM 35.6 °F 29.9 °F 28.4 °F 75% 30.14 in 10.0 mi SW 6.9 mph - N/A   Clear
3:35 AM 35.6 °F 31.7 °F 28.4 °F 75% 30.14 in 10.0 mi SW 4.6 mph - N/A   Clear
3:55 AM 35.6 °F 30.7 °F 28.4 °F 75% 30.14 in 10.0 mi SW 5.8 mph - N/A   Clear
4:15 AM 35.6 °F 30.7 °F 28.4 °F 75% 30.13 in 10.0 mi SW 5.8 mph - N/A   Clear
4:35 AM 37.4 °F 32.8 °F 28.4 °F 70% 30.13 in 10.0 mi SSW 5.8 mph - N/A   Clear
5:15 AM 41.0 °F 35.8 °F 26.6 °F 57% 30.14 in 10.0 mi SSW 8.1 mph - N/A   Clear
5:35 AM 42.8 °F 38.0 °F 26.6 °F 53% 30.13 in 10.0 mi SSW 8.1 mph - N/A   Clear
5:55 AM 42.8 °F 36.6 °F 26.6 °F 53% 30.13 in 10.0 mi SSW 11.5 mph 16.1 mph N/A   Clear
6:15 AM 44.6 °F 39.7 °F 26.6 °F 49% 30.12 in 10.0 mi SSW 9.2 mph - N/A   Clear
6:35 AM 46.4 °F 41.5 °F 30.2 °F 53% 30.12 in 10.0 mi SSW 10.4 mph - N/A   Clear
6:55 AM 46.4 °F 41.1 °F 32.0 °F 57% 30.11 in 10.0 mi SSW 11.5 mph - N/A   Clear
7:15 AM 50.0 °F - 32.0 °F 50% 30.12 in 10.0 mi SSW 10.4 mph 16.1 mph N/A   Clear
7:35 AM 51.8 °F - 32.0 °F 47% 30.12 in 10.0 mi SSW 15.0 mph 20.7 mph N/A   Clear
8:15 AM 55.4 °F - 32.0 °F 41% 30.12 in 10.0 mi SSW 17.3 mph 25.3 mph N/A   Clear
8:35 AM 57.2 °F - 32.0 °F 38% 30.11 in 10.0 mi SW 17.3 mph 27.6 mph N/A   Clear
8:55 AM 59.0 °F - 30.2 °F 34% 30.11 in 10.0 mi SW 19.6 mph 27.6 mph N/A   Clear
9:15 AM 59.0 °F - 28.4 °F 31% 30.11 in 10.0 mi SW 21.9 mph 36.8 mph N/A   Clear
9:35 AM 60.8 °F - 28.4 °F 29% 30.10 in 10.0 mi SW 21.9 mph 29.9 mph N/A   Clear
9:55 AM 62.6 °F - 26.6 °F 26% 30.11 in 10.0 mi WSW 32.2 mph 44.9 mph N/A   Clear
10:15 AM 62.6 °F - 26.6 °F 26% 30.11 in 10.0 mi WSW 20.7 mph 34.5 mph N/A   Clear
10:55 AM 62.6 °F - 28.4 °F 27% 30.11 in 10.0 mi WSW 20.7 mph 31.1 mph N/A   Clear
11:15 AM 64.4 °F - 28.4 °F 26% 30.10 in 10.0 mi West 21.9 mph 32.2 mph N/A   Clear
11:35 AM 64.4 °F - 26.6 °F 24% 30.10 in 10.0 mi WSW 21.9 mph 33.4 mph N/A   Clear
11:55 AM 64.4 °F - 26.6 °F 24% 30.11 in 10.0 mi West 25.3 mph 35.7 mph N/A   Clear
12:15 PM 64.4 °F - 23.0 °F 21% 30.11 in 10.0 mi West 26.5 mph 38.0 mph N/A   Clear
12:35 PM 64.4 °F - 28.4 °F 26% 30.11 in 10.0 mi West 12.7 mph 34.5 mph N/A   Clear
1:15 PM 64.4 °F - 24.8 °F 22% 30.13 in 10.0 mi West 21.9 mph 35.7 mph N/A   Clear
1:35 PM 64.4 °F - 24.8 °F 22% 30.12 in 10.0 mi West 25.3 mph 31.1 mph N/A   Clear
1:55 PM 64.4 °F - 23.0 °F 21% 30.13 in 10.0 mi WNW 24.2 mph 33.4 mph N/A   Clear
2:15 PM 64.4 °F - 23.0 °F 21% 30.14 in 10.0 mi West 20.7 mph 32.2 mph N/A   Clear
2:35 PM 64.4 °F - 23.0 °F 21% 30.14 in 10.0 mi WNW 16.1 mph 27.6 mph N/A   Clear
2:55 PM 66.2 °F - 21.2 °F 18% 30.14 in 10.0 mi NW 17.3 mph 23.0 mph N/A   Clear
3:15 PM 64.4 °F - 17.6 °F 16% 30.16 in 10.0 mi NW 16.1 mph 24.2 mph N/A   Clear
3:35 PM 64.4 °F - 24.8 °F 22% 30.17 in 10.0 mi NW 16.1 mph 24.2 mph N/A   Clear
3:55 PM 62.6 °F - 23.0 °F 22% 30.19 in 10.0 mi NW 20.7 mph 24.2 mph N/A   Clear
4:15 PM 62.6 °F - 19.4 °F 19% 30.20 in 10.0 mi NW 12.7 mph 21.9 mph N/A   Clear
4:35 PM 62.6 °F - 14.0 °F 15% 30.21 in 10.0 mi NW 20.7 mph 26.5 mph N/A   Clear
4:55 PM 60.8 °F - 10.4 °F 14% 30.23 in 10.0 mi NNW 11.5 mph 24.2 mph N/A   Clear
5:15 PM 59.0 °F - 10.4 °F 15% 30.25 in 10.0 mi NW 13.8 mph 23.0 mph N/A   Clear
5:35 PM 59.0 °F - 10.4 °F 15% 30.26 in 10.0 mi NNW 15.0 mph 21.9 mph N/A   Clear
5:55 PM 57.2 °F - 10.4 °F 16% 30.27 in 10.0 mi NW 13.8 mph 20.7 mph N/A   Clear
6:15 PM 55.4 °F - 14.0 °F 20% 30.29 in 10.0 mi NNW 8.1 mph - N/A   Clear
6:35 PM 53.6 °F - 14.0 °F 21% 30.31 in 10.0 mi NNW 8.1 mph - N/A   Clear
6:55 PM 51.8 °F - 14.0 °F 22% 30.32 in 10.0 mi NNW 6.9 mph - N/A   Clear
7:15 PM 51.8 °F - 14.0 °F 22% 30.34 in 10.0 mi NNW 4.6 mph - N/A   Clear
7:35 PM 51.8 °F - 14.0 °F 22% 30.36 in 10.0 mi NNW 3.5 mph - N/A   Clear
8:15 PM 48.2 °F - 17.6 °F 30% 30.38 in 10.0 mi NW 4.6 mph - N/A   Clear
8:35 PM 48.2 °F - 17.6 °F 30% 30.40 in 10.0 mi NNW 4.6 mph - N/A   Clear
8:55 PM 46.4 °F 42.9 °F 19.4 °F 34% 30.42 in 10.0 mi North 6.9 mph - N/A   Clear
9:15 PM 46.4 °F 43.5 °F 19.4 °F 34% 30.43 in 10.0 mi North 5.8 mph - N/A   Clear
9:35 PM 46.4 °F 43.5 °F 19.4 °F 34% 30.44 in 10.0 mi North 5.8 mph - N/A   Clear
9:55 PM 44.6 °F 43.1 °F 21.2 °F 39% 30.45 in 10.0 mi North 3.5 mph - N/A   Clear
10:15 PM 44.6 °F 42.2 °F 23.0 °F 43% 30.46 in 10.0 mi North 4.6 mph - N/A   Clear
10:35 PM 42.8 °F 40.1 °F 23.0 °F 46% 30.47 in 10.0 mi North 4.6 mph - N/A   Clear
10:55 PM 42.8 °F 40.1 °F 23.0 °F 46% 30.48 in 10.0 mi NNE 4.6 mph - N/A   Clear
11:15 PM 42.8 °F 40.1 °F 23.0 °F 46% 30.48 in 10.0 mi NNE 4.6 mph - N/A   Clear
11:35 PM 41.0 °F 35.2 °F 24.8 °F 53% 30.48 in 10.0 mi NNE 9.2 mph - N/A   Clear
11:55 PM 41.0 °F 35.8 °F 23.0 °F 49% 30.50 in 10.0 mi NNE 8.1 mph - N/A   Clear